EZS35KD LFSB-EKCH

Flight info

Callsign EZS35KD
Flight time 1h 38m
Altitude 24000
Route ELBEG Y715 NEDOV/N0394F260 Y715 HEUSE/N0438F360 N851 TEDGO DCT HAREM DCT LOHRE DCT BERXO/N0435F350 DCT MAKEL N851 GESKA Z711 MONAK
Aircraft A320/M-SDE2E3FGHIJ1RWXYZ/LB1

Departure

Time 2026-04-30 07:35
Airport EuroAirport Basel–Mulhouse–Freiburg (LFSB)

Arrival

Time 2026-04-30 09:14
Airport Copenhagen Kastrup Airport (EKCH)
Time Latitude Longitude Altitude Speed Heading
2026-04-30 07:08 47.59755 7.53194 890 ft 0 kts 64°
2026-04-30 07:26 47.59755 7.53192 890 ft 2 kts 64°
2026-04-30 07:26 47.59745 7.53158 890 ft 4 kts 74°
2026-04-30 07:26 47.59741 7.53121 890 ft 4 kts 105°
2026-04-30 07:27 47.59751 7.53098 890 ft 0 kts 155°
2026-04-30 07:29 47.59718 7.53120 890 ft 7 kts 158°
2026-04-30 07:29 47.59687 7.53088 890 ft 6 kts 262°
2026-04-30 07:29 47.59661 7.52980 890 ft 14 kts 245°
2026-04-30 07:30 47.59590 7.52812 890 ft 9 kts 199°
2026-04-30 07:30 47.59530 7.52839 890 ft 11 kts 153°
2026-04-30 07:30 47.59437 7.52908 890 ft 18 kts 153°
2026-04-30 07:31 47.59306 7.52996 890 ft 23 kts 156°
2026-04-30 07:31 47.59189 7.53086 890 ft 14 kts 130°
2026-04-30 07:31 47.59174 7.53217 890 ft 11 kts 116°
2026-04-30 07:31 47.59149 7.53318 890 ft 10 kts 78°
2026-04-30 07:32 47.59167 7.53433 890 ft 15 kts 76°
2026-04-30 07:32 47.59193 7.53594 890 ft 14 kts 77°
2026-04-30 07:32 47.59215 7.53739 890 ft 11 kts 77°
2026-04-30 07:32 47.59231 7.53839 890 ft 5 kts 76°
2026-04-30 07:33 47.59238 7.53885 890 ft 4 kts 76°
2026-04-30 07:33 47.59245 7.53935 890 ft 8 kts 86°
2026-04-30 07:33 47.59209 7.54035 890 ft 11 kts 124°
2026-04-30 07:33 47.59173 7.54076 890 ft 4 kts 196°
2026-04-30 07:34 47.59160 7.54034 890 ft 8 kts 258°
2026-04-30 07:34 47.59158 7.54019 890 ft 0 kts 257°
2026-04-30 07:34 47.59147 7.53949 890 ft 35 kts 258°
2026-04-30 07:34 47.59025 7.53169 890 ft 116 kts 257°
2026-04-30 07:35 47.58809 7.51729 1093 ft 157 kts 259°
2026-04-30 07:35 47.58574 7.50139 1879 ft 159 kts 260°
2026-04-30 07:35 47.58350 7.48546 2593 ft 164 kts 260°
2026-04-30 07:35 47.58109 7.46762 2991 ft 187 kts 261°
2026-04-30 07:36 47.57810 7.44762 3348 ft 211 kts 258°
2026-04-30 07:36 47.57457 7.42511 3829 ft 236 kts 258°
2026-04-30 07:36 47.57073 7.40017 4393 ft 261 kts 258°
2026-04-30 07:36 47.56676 7.37308 5127 ft 276 kts 259°
2026-04-30 07:37 47.56667 7.34446 6004 ft 284 kts 284°
2026-04-30 07:37 47.57520 7.31795 6869 ft 290 kts 312°
2026-04-30 07:37 47.59082 7.29954 7779 ft 288 kts 339°
2026-04-30 07:37 47.61010 7.29311 8716 ft 285 kts
2026-04-30 07:38 47.62300 7.29617 9336 ft 284 kts 21°
2026-04-30 07:38 47.64055 7.30951 10281 ft 285 kts 33°
2026-04-30 07:38 47.65798 7.32520 10865 ft 304 kts 33°
2026-04-30 07:38 47.67656 7.34234 11341 ft 322 kts 33°
2026-04-30 07:39 47.70203 7.36613 12447 ft 330 kts 33°
2026-04-30 07:39 47.71515 7.37853 13033 ft 332 kts 33°
2026-04-30 07:39 47.73466 7.39705 13928 ft 334 kts 33°
2026-04-30 07:39 47.75432 7.41578 14786 ft 336 kts 33°
2026-04-30 07:40 47.77403 7.43465 15590 ft 338 kts 33°
2026-04-30 07:40 47.79385 7.45372 16404 ft 340 kts 33°
2026-04-30 07:40 47.81197 7.47629 17154 ft 343 kts 49°
2026-04-30 07:40 47.82599 7.50520 17888 ft 346 kts 54°
2026-04-30 07:41 47.83962 7.53483 18629 ft 348 kts 54°
2026-04-30 07:41 47.85320 7.56412 19305 ft 350 kts 54°
2026-04-30 07:41 47.86715 7.59414 19968 ft 353 kts 54°
2026-04-30 07:41 47.88117 7.62444 20622 ft 356 kts 54°
2026-04-30 07:42 47.89532 7.65490 21246 ft 359 kts 53°
2026-04-30 07:42 47.90961 7.68555 21848 ft 362 kts 54°
2026-04-30 07:42 47.92400 7.71654 22459 ft 364 kts 54°
2026-04-30 07:42 47.93844 7.74768 23052 ft 366 kts 54°
2026-04-30 07:43 47.95296 7.77914 23627 ft 369 kts 54°
2026-04-30 07:43 47.96753 7.81077 24178 ft 372 kts 54°
2026-04-30 07:43 47.98220 7.84266 24745 ft 374 kts 54°
2026-04-30 07:43 47.99698 7.87470 25291 ft 376 kts 54°
2026-04-30 07:44 48.01182 7.90704 25783 ft 377 kts 54°
2026-04-30 07:44 48.02679 7.93942 26276 ft 380 kts 54°
2026-04-30 07:44 48.04181 7.97203 26742 ft 382 kts 54°
2026-04-30 07:44 48.05692 8.00491 27232 ft 385 kts 54°
2026-04-30 07:45 48.07201 8.03797 27695 ft 386 kts 54°
2026-04-30 07:45 48.08724 8.07128 28143 ft 389 kts 54°
2026-04-30 07:45 48.10255 8.10478 28601 ft 391 kts 55°
2026-04-30 07:45 48.11772 8.13811 28997 ft 393 kts 55°
2026-04-30 07:46 48.13310 8.17204 29427 ft 395 kts 55°
2026-04-30 07:46 48.14859 8.20608 29821 ft 397 kts 55°
2026-04-30 07:46 48.16420 8.24028 30243 ft 398 kts 55°
2026-04-30 07:46 48.17984 8.27461 30605 ft 399 kts 55°
2026-04-30 07:47 48.19549 8.30913 30985 ft 402 kts 55°
2026-04-30 07:47 48.21119 8.34387 31334 ft 404 kts 55°
2026-04-30 07:47 48.22694 8.37882 31656 ft 406 kts 55°
2026-04-30 07:47 48.24279 8.41389 32040 ft 406 kts 55°
2026-04-30 07:48 48.25859 8.44893 32492 ft 405 kts 55°
2026-04-30 07:48 48.27432 8.48394 32927 ft 403 kts 55°
2026-04-30 07:48 48.29002 8.51879 33350 ft 403 kts 55°
2026-04-30 07:48 48.30567 8.55356 33751 ft 402 kts 55°
2026-04-30 07:49 48.32128 8.58831 34176 ft 401 kts 55°
2026-04-30 07:49 48.33679 8.62300 34588 ft 400 kts 54°
2026-04-30 07:49 48.35237 8.65777 34943 ft 400 kts 54°
2026-04-30 07:49 48.36796 8.69250 35276 ft 401 kts 54°
2026-04-30 07:50 48.38353 8.72737 35574 ft 403 kts 54°
2026-04-30 07:50 48.39919 8.76241 35862 ft 404 kts 54°
2026-04-30 07:50 48.41566 8.79669 36159 ft 402 kts 46°
2026-04-30 07:50 48.43692 8.82371 36310 ft 401 kts 31°
2026-04-30 07:51 48.46253 8.83997 36330 ft 402 kts 17°
2026-04-30 07:51 48.51666 8.86066 36323 ft 401 kts 16°
2026-04-30 07:52 48.57033 8.88147 36329 ft 400 kts 17°
2026-04-30 07:52 48.62425 8.90279 36330 ft 400 kts 16°
2026-04-30 07:53 48.67818 8.92392 36327 ft 400 kts 17°
2026-04-30 07:53 48.73210 8.94522 36330 ft 400 kts 16°
2026-04-30 07:54 48.78601 8.96642 36334 ft 400 kts 17°
2026-04-30 07:54 48.83985 8.98775 36338 ft 400 kts 17°
2026-04-30 07:55 48.89378 9.00921 36341 ft 400 kts 17°
2026-04-30 07:55 48.94725 9.03039 36346 ft 399 kts 17°
2026-04-30 07:56 49.00100 9.05178 36353 ft 399 kts 17°
2026-04-30 07:56 49.05458 9.07321 36358 ft 398 kts 17°
2026-04-30 07:57 49.10819 9.09462 36360 ft 398 kts 17°
2026-04-30 07:57 49.16174 9.11593 36363 ft 397 kts 17°
2026-04-30 07:58 49.21516 9.13755 36366 ft 397 kts 17°
2026-04-30 07:58 49.26860 9.15899 36368 ft 397 kts 17°
2026-04-30 07:59 49.32202 9.18053 36373 ft 397 kts 17°
2026-04-30 07:59 49.37512 9.20214 36385 ft 397 kts 17°
2026-04-30 08:00 49.45521 9.23456 36399 ft 396 kts 17°
2026-04-30 08:00 49.50856 9.25621 36408 ft 396 kts 17°
2026-04-30 08:01 49.56198 9.27792 36419 ft 397 kts 17°
2026-04-30 08:01 49.61529 9.29971 36429 ft 396 kts 17°
2026-04-30 08:02 49.69510 9.33240 36430 ft 395 kts 17°
2026-04-30 08:03 49.80086 9.37598 36430 ft 394 kts 17°
2026-04-30 08:04 49.85388 9.39783 36428 ft 394 kts 17°
2026-04-30 08:04 49.90678 9.41966 36429 ft 393 kts 17°
2026-04-30 08:05 49.95959 9.44157 36433 ft 393 kts 17°
2026-04-30 08:05 50.01243 9.46363 36434 ft 393 kts 18°
2026-04-30 08:06 50.06494 9.48542 36437 ft 392 kts 18°
2026-04-30 08:06 50.11838 9.50361 36443 ft 393 kts 15°
2026-04-30 08:07 50.17179 9.52140 36445 ft 392 kts 15°
2026-04-30 08:07 50.22517 9.53930 36445 ft 392 kts 15°
2026-04-30 08:08 50.27851 9.55719 36444 ft 392 kts 15°
2026-04-30 08:08 50.33187 9.57504 36445 ft 392 kts 15°
2026-04-30 08:09 50.38517 9.59311 36444 ft 392 kts 15°
2026-04-30 08:09 50.43813 9.61108 36449 ft 391 kts 15°
2026-04-30 08:10 50.49133 9.62905 36450 ft 391 kts 15°
2026-04-30 08:10 50.54452 9.64717 36452 ft 392 kts 15°
2026-04-30 08:11 50.59779 9.66526 36456 ft 391 kts 15°
2026-04-30 08:11 50.65104 9.68350 36459 ft 392 kts 15°
2026-04-30 08:12 50.70438 9.70167 36460 ft 392 kts 15°
2026-04-30 08:12 50.75771 9.71997 36465 ft 392 kts 15°
2026-04-30 08:13 50.81113 9.73829 36469 ft 393 kts 15°
2026-04-30 08:13 50.86451 9.75661 36472 ft 392 kts 15°
2026-04-30 08:14 50.91754 9.77499 36477 ft 392 kts 15°
2026-04-30 08:14 50.97085 9.79352 36478 ft 392 kts 15°
2026-04-30 08:15 51.02410 9.81207 36483 ft 391 kts 15°
2026-04-30 08:15 51.07731 9.83051 36489 ft 391 kts 15°
2026-04-30 08:16 51.13048 9.84907 36492 ft 390 kts 15°
2026-04-30 08:16 51.18351 9.86760 36489 ft 389 kts 15°
2026-04-30 08:17 51.23607 9.88802 36485 ft 387 kts 21°
2026-04-30 08:17 51.28699 9.91610 36484 ft 387 kts 21°
2026-04-30 08:18 51.33796 9.94422 36482 ft 387 kts 21°
2026-04-30 08:18 51.38890 9.97239 36483 ft 388 kts 21°
2026-04-30 08:19 51.43985 10.00075 36486 ft 387 kts 21°
2026-04-30 08:19 51.49075 10.02907 36496 ft 387 kts 21°
2026-04-30 08:20 51.54162 10.05737 36508 ft 387 kts 21°
2026-04-30 08:20 51.59236 10.08575 36529 ft 385 kts 21°
2026-04-30 08:21 51.64254 10.11387 36543 ft 383 kts 21°
2026-04-30 08:21 51.69273 10.14200 36544 ft 380 kts 21°
2026-04-30 08:22 51.74261 10.17018 36548 ft 379 kts 21°
2026-04-30 08:22 51.79233 10.19825 36540 ft 378 kts 21°
2026-04-30 08:23 51.84202 10.22627 36538 ft 377 kts 21°
2026-04-30 08:23 51.89163 10.25440 36532 ft 377 kts 21°
2026-04-30 08:24 51.94112 10.28246 36532 ft 377 kts 21°
2026-04-30 08:24 51.99053 10.31059 36530 ft 376 kts 21°
2026-04-30 08:25 52.03959 10.33860 36524 ft 376 kts 21°
2026-04-30 08:25 52.08899 10.36687 36528 ft 376 kts 21°
2026-04-30 08:26 52.13831 10.39511 36530 ft 376 kts 21°
2026-04-30 08:26 52.18759 10.42362 36526 ft 376 kts 21°
2026-04-30 08:27 52.22858 10.44722 36531 ft 376 kts 21°
2026-04-30 08:27 52.27793 10.47558 36532 ft 376 kts 21°
2026-04-30 08:28 52.32725 10.50416 36541 ft 376 kts 21°
2026-04-30 08:28 52.37660 10.53276 36542 ft 376 kts 21°
2026-04-30 08:29 52.42598 10.56138 36543 ft 376 kts 21°
2026-04-30 08:29 52.47527 10.59017 36549 ft 376 kts 21°
2026-04-30 08:30 52.52460 10.61898 36551 ft 376 kts 21°
2026-04-30 08:30 52.57389 10.64781 36550 ft 376 kts 21°
2026-04-30 08:31 52.62314 10.67669 36545 ft 376 kts 21°
2026-04-30 08:31 52.67231 10.70563 36543 ft 375 kts 21°
2026-04-30 08:32 52.72153 10.73457 36542 ft 375 kts 21°
2026-04-30 08:32 52.77069 10.76368 36545 ft 375 kts 21°
2026-04-30 08:33 52.81979 10.79292 36538 ft 374 kts 21°
2026-04-30 08:33 52.86883 10.82211 36539 ft 374 kts 21°
2026-04-30 08:34 52.91782 10.85118 36536 ft 374 kts 21°
2026-04-30 08:34 52.96648 10.88014 36532 ft 374 kts 21°
2026-04-30 08:35 53.01541 10.90949 36531 ft 374 kts 21°
2026-04-30 08:35 53.06439 10.93882 36527 ft 374 kts 21°
2026-04-30 08:36 53.11335 10.96831 36524 ft 374 kts 21°
2026-04-30 08:36 53.16237 10.99775 36522 ft 374 kts 21°
2026-04-30 08:37 53.21138 11.02736 36522 ft 374 kts 21°
2026-04-30 08:37 53.26003 11.05678 36522 ft 374 kts 21°
2026-04-30 08:38 53.30891 11.08668 36522 ft 374 kts 21°
2026-04-30 08:38 53.35783 11.11641 36521 ft 374 kts 21°
2026-04-30 08:39 53.40674 11.14609 36520 ft 374 kts 21°
2026-04-30 08:39 53.45560 11.17602 36520 ft 374 kts 21°
2026-04-30 08:40 53.50437 11.20600 36516 ft 373 kts 21°
2026-04-30 08:40 53.55315 11.23590 36521 ft 373 kts 21°
2026-04-30 08:41 53.60191 11.26587 36522 ft 373 kts 21°
2026-04-30 08:41 53.65053 11.29609 36524 ft 372 kts 21°
2026-04-30 08:42 53.69916 11.32614 36523 ft 372 kts 21°
2026-04-30 08:42 53.74777 11.35630 36523 ft 372 kts 21°
2026-04-30 08:43 53.79631 11.38643 36524 ft 372 kts 21°
2026-04-30 08:43 53.84458 11.41647 36524 ft 372 kts 21°
2026-04-30 08:44 53.89315 11.44695 36526 ft 372 kts 21°
2026-04-30 08:44 53.94168 11.47733 36525 ft 372 kts 21°
2026-04-30 08:45 53.99021 11.50773 36525 ft 372 kts 21°
2026-04-30 08:45 54.03873 11.53837 36523 ft 372 kts 21°
2026-04-30 08:46 54.08728 11.56907 36187 ft 372 kts 21°
2026-04-30 08:46 54.11165 11.58437 35943 ft 374 kts 21°
2026-04-30 08:46 54.13610 11.59995 35683 ft 376 kts 21°
2026-04-30 08:46 54.16030 11.61530 35060 ft 376 kts 21°
2026-04-30 08:47 54.18485 11.63096 34415 ft 376 kts 21°
2026-04-30 08:47 54.20919 11.64652 33962 ft 371 kts 21°
2026-04-30 08:47 54.23324 11.66177 33480 ft 367 kts 21°
2026-04-30 08:47 54.25701 11.67698 33000 ft 363 kts 21°
2026-04-30 08:48 54.28053 11.69195 32526 ft 359 kts 21°
2026-04-30 08:48 54.30381 11.70674 32058 ft 354 kts 21°
2026-04-30 08:48 54.32680 11.72141 31593 ft 351 kts 21°
2026-04-30 08:48 54.34956 11.73597 31133 ft 347 kts 21°
2026-04-30 08:49 54.37201 11.75044 30684 ft 343 kts 21°
2026-04-30 08:49 54.39427 11.76476 30232 ft 340 kts 21°
2026-04-30 08:49 54.41634 11.77889 29791 ft 336 kts 21°
2026-04-30 08:49 54.43807 11.79287 29357 ft 332 kts 21°
2026-04-30 08:50 54.45941 11.80742 28927 ft 328 kts 25°
2026-04-30 08:50 54.47978 11.82357 28500 ft 324 kts 25°
2026-04-30 08:50 54.50011 11.83975 28086 ft 320 kts 25°
2026-04-30 08:50 54.52025 11.85575 27675 ft 317 kts 25°
2026-04-30 08:51 54.54023 11.87146 27271 ft 314 kts 25°
2026-04-30 08:51 54.55998 11.88707 26873 ft 311 kts 25°
2026-04-30 08:51 54.57967 11.90255 26462 ft 310 kts 25°
2026-04-30 08:51 54.59922 11.91802 26053 ft 308 kts 25°
2026-04-30 08:52 54.61846 11.93396 25648 ft 306 kts 30°
2026-04-30 08:52 54.63634 11.95372 25253 ft 304 kts 33°
2026-04-30 08:52 54.65385 11.97410 24841 ft 303 kts 34°
2026-04-30 08:52 54.67129 11.99439 24439 ft 301 kts 33°
2026-04-30 08:53 54.68865 12.01447 24036 ft 299 kts 33°
2026-04-30 08:53 54.70585 12.03431 23638 ft 296 kts 33°
2026-04-30 08:53 54.72290 12.05405 23237 ft 293 kts 33°
2026-04-30 08:53 54.73979 12.07358 22856 ft 291 kts 34°
2026-04-30 08:54 54.75632 12.09282 22463 ft 289 kts 34°
2026-04-30 08:54 54.77300 12.11213 22083 ft 287 kts 33°
2026-04-30 08:54 54.78958 12.13135 21699 ft 286 kts 34°
2026-04-30 08:54 54.80602 12.15056 21310 ft 284 kts 34°
2026-04-30 08:55 54.82237 12.16966 20936 ft 282 kts 34°
2026-04-30 08:55 54.83868 12.18859 20552 ft 281 kts 34°
2026-04-30 08:55 54.85490 12.20739 20179 ft 279 kts 33°
2026-04-30 08:55 54.87098 12.22609 19814 ft 278 kts 34°
2026-04-30 08:56 54.88695 12.24478 19452 ft 276 kts 34°
2026-04-30 08:56 54.90260 12.26319 19092 ft 274 kts 34°
2026-04-30 08:56 54.91859 12.28194 18731 ft 273 kts 34°
2026-04-30 08:56 54.93430 12.30035 18369 ft 272 kts 34°
2026-04-30 08:57 54.94976 12.31839 18012 ft 270 kts 34°
2026-04-30 08:57 54.96531 12.33670 17681 ft 269 kts 34°
2026-04-30 08:57 54.98079 12.35491 17337 ft 268 kts 34°
2026-04-30 08:57 54.99623 12.37302 16999 ft 267 kts 34°
2026-04-30 08:58 55.01161 12.39103 16673 ft 266 kts 33°
2026-04-30 08:58 55.02697 12.40884 16336 ft 265 kts 33°
2026-04-30 08:58 55.04228 12.42667 16007 ft 264 kts 33°
2026-04-30 08:58 55.05757 12.44447 15682 ft 264 kts 33°
2026-04-30 08:59 55.07280 12.46223 15359 ft 262 kts 33°
2026-04-30 08:59 55.08792 12.47996 15030 ft 262 kts 33°
2026-04-30 08:59 55.10302 12.49770 14705 ft 261 kts 33°
2026-04-30 08:59 55.11809 12.51530 14379 ft 261 kts 33°
2026-04-30 09:00 55.13312 12.53292 14042 ft 260 kts 33°
2026-04-30 09:00 55.14810 12.55055 13700 ft 260 kts 33°
2026-04-30 09:00 55.16307 12.56825 13372 ft 259 kts 33°
2026-04-30 09:00 55.17802 12.58589 13014 ft 259 kts 33°
2026-04-30 09:01 55.19293 12.60342 12686 ft 257 kts 33°
2026-04-30 09:01 55.20777 12.62088 12343 ft 257 kts 33°
2026-04-30 09:01 55.22246 12.63814 12173 ft 250 kts 33°
2026-04-30 09:01 55.23743 12.65240 12013 ft 243 kts 22°
2026-04-30 09:02 55.26919 12.67060 11279 ft 244 kts 18°
2026-04-30 09:02 55.28577 12.67998 10618 ft 255 kts 18°
2026-04-30 09:02 55.30276 12.68974 10119 ft 259 kts 18°
2026-04-30 09:03 55.31996 12.69957 9659 ft 260 kts 18°
2026-04-30 09:03 55.33719 12.70935 9204 ft 261 kts 17°
2026-04-30 09:03 55.35456 12.71916 8754 ft 262 kts 17°
2026-04-30 09:03 55.37189 12.72911 8302 ft 263 kts 17°
2026-04-30 09:04 55.38921 12.73903 7997 ft 262 kts 17°
2026-04-30 09:04 55.40656 12.74893 7713 ft 262 kts 17°
2026-04-30 09:04 55.42388 12.75890 7408 ft 261 kts 17°
2026-04-30 09:04 55.44112 12.76883 7110 ft 259 kts 17°
2026-04-30 09:05 55.45806 12.77851 6805 ft 253 kts 17°
2026-04-30 09:05 55.47457 12.78797 6504 ft 247 kts 17°
2026-04-30 09:05 55.49071 12.79725 6197 ft 241 kts 17°
2026-04-30 09:05 55.50628 12.80627 5900 ft 237 kts 17°
2026-04-30 09:06 55.52205 12.81525 5599 ft 234 kts 16°
2026-04-30 09:06 55.53736 12.82402 5290 ft 230 kts 16°
2026-04-30 09:06 55.55222 12.83268 4992 ft 225 kts 16°
2026-04-30 09:06 55.56699 12.84141 4684 ft 223 kts 16°
2026-04-30 09:07 55.58160 12.85018 4363 ft 220 kts 16°
2026-04-30 09:07 55.59605 12.85897 4058 ft 220 kts 16°
2026-04-30 09:07 55.61051 12.86787 3726 ft 220 kts 16°
2026-04-30 09:07 55.62505 12.87688 3383 ft 222 kts 16°
2026-04-30 09:08 55.63964 12.88605 3025 ft 220 kts 16°
2026-04-30 09:08 55.65374 12.89512 2714 ft 210 kts 16°
2026-04-30 09:08 55.66718 12.90390 2427 ft 202 kts 17°
2026-04-30 09:08 55.68020 12.91196 2136 ft 193 kts
2026-04-30 09:09 55.69266 12.90903 2012 ft 178 kts 327°
2026-04-30 09:09 55.70204 12.89511 2014 ft 175 kts 315°
2026-04-30 09:09 55.71079 12.88017 2005 ft 174 kts 310°
2026-04-30 09:09 55.71773 12.86272 2000 ft 174 kts 293°
2026-04-30 09:10 55.72062 12.84195 2004 ft 174 kts 274°
2026-04-30 09:10 55.71857 12.82145 2039 ft 169 kts 251°
2026-04-30 09:10 55.71231 12.80383 2013 ft 171 kts 232°
2026-04-30 09:10 55.70363 12.78929 1985 ft 172 kts 225°
2026-04-30 09:11 55.69481 12.77557 1817 ft 170 kts 225°
2026-04-30 09:11 55.68593 12.76173 1611 ft 169 kts 225°
2026-04-30 09:11 55.67728 12.74827 1386 ft 159 kts 225°
2026-04-30 09:11 55.66925 12.73579 1173 ft 148 kts 225°
2026-04-30 09:12 55.66188 12.72434 993 ft 135 kts 226°
2026-04-30 09:12 55.65496 12.71357 813 ft 130 kts 226°
2026-04-30 09:12 55.64820 12.70298 646 ft 130 kts 226°
2026-04-30 09:12 55.64137 12.69236 469 ft 131 kts 224°
2026-04-30 09:13 55.63450 12.68177 299 ft 131 kts 226°
2026-04-30 09:13 55.62764 12.67112 126 ft 131 kts 224°
2026-04-30 09:13 55.62092 12.66063 18 ft 119 kts 223°
2026-04-30 09:13 55.61643 12.65369 16 ft 58 kts 220°
2026-04-30 09:14 55.61372 12.64944 18 ft 42 kts 223°
2026-04-30 09:14 55.61246 12.64584 18 ft 23 kts 251°
2026-04-30 09:14 55.61195 12.64313 17 ft 19 kts 251°
2026-04-30 09:14 55.61230 12.64113 17 ft 20 kts 340°
2026-04-30 09:15 55.61364 12.64210 18 ft 23 kts 33°
2026-04-30 09:15 55.61490 12.64355 19 ft 18 kts 33°
2026-04-30 09:15 55.61602 12.64483 17 ft 21 kts 33°
2026-04-30 09:15 55.61733 12.64635 19 ft 24 kts 33°
2026-04-30 09:16 55.61864 12.64786 18 ft 17 kts 33°
2026-04-30 09:16 55.61975 12.64913 17 ft 21 kts 33°
2026-04-30 09:16 55.62089 12.65045 19 ft 21 kts 33°
2026-04-30 09:16 55.62202 12.65174 19 ft 16 kts 30°
2026-04-30 09:17 55.62309 12.65202 17 ft 17 kts
2026-04-30 09:17 55.62418 12.65211 17 ft 10 kts 22°
2026-04-30 09:17 55.62438 12.65321 17 ft 10 kts 89°
2026-04-30 09:17 55.62440 12.65488 17 ft 17 kts 89°
2026-04-30 09:18 55.62442 12.65634 17 ft 18 kts 88°
2026-04-30 09:18 55.62459 12.65757 17 ft 8 kts 28°
2026-04-30 09:18 55.62512 12.65762 17 ft 5 kts 357°
2026-04-30 09:18 55.62520 12.65762 17 ft 0 kts 358°